Regional Weather Roundup
Issued by NWS

Home | Current Version | Previous Version | Graphics & Text | Print | Product List | Glossary On
Versions: 1 2 3 4 5 6 7 8 9 10 11 12 13 14 15 16 17 18 19 20 21 22 23 24 25 26 27 28 29 30 31 32 33 34 35 36 37 38 39 40 41 42 43 44 45 46 47 48 49 50
000
ASUS43 KBIS 052101
RWRND

NORTH DAKOTA REGIONAL WEATHER ROUNDUP
NATIONAL WEATHER SERVICE BISMARCK ND
300 PM CST THU MAR 05 2015

NOTE: "FAIR" INDICATES FEW OR NO CLOUDS BELOW 12,000 FEET WITH NO
SIGNIFICANT WEATHER AND/OR OBSTRUCTIONS TO VISIBILITY.


NDZ001>003-009>011-017-052200-
NORTHWEST NORTH DAKOTA

CITY           SKY/WX    TMP DP  RH WIND       PRES   REMARKS
WILLISTON      SUNNY     35  13  40 W12       30.02F
MINOT          SUNNY     25  10  53 SW14      30.01F WCI  13
MINOT AFB      SUNNY     24  14  64 SW10      30.01F WCI  14
$$

NDZ018>021-031>035-040>046-052200-
SOUTHWEST NORTH DAKOTA

CITY           SKY/WX    TMP DP  RH WIND       PRES   REMARKS
BISMARCK       SUNNY     38   9  30 S12G17    30.05F
DICKINSON      SUNNY     42  10  27 NW20G29   30.00S
GARRISON         N/A     29  14  53 W10       30.03F WCI  20
HETTINGER ARPT SUNNY     44  11  26 NW25G32   30.03F
$$

NDZ004>008-012>016-024-026-027-054-052200-
NORTHEAST NORTH DAKOTA

CITY           SKY/WX    TMP DP  RH WIND       PRES   REMARKS
GRAND FORKS    SUNNY     22  10  60 S24G30    30.16F WCI   5
GRND FRKS AFB  SUNNY     27   8  44 SW18      30.13F WCI  13
DEVILS LAKE    SUNNY     25  12  58 SW13      30.06F WCI  13
$$

NDZ022-023-025-028>030-036>039-047>053-052200-
SOUTHEAST NORTH DAKOTA

CITY           SKY/WX    TMP DP  RH WIND       PRES   REMARKS
FARGO          SUNNY     22   6  50 S23       30.24F WCI   6
JAMESTOWN      SUNNY     26  11  52 S20       30.11F WCI  12
$$




USA.gov is the U.S. government's official web portal to all federal, state and local government web resources and services.